Time,TemperatureF,DewpointF,PressureIn,WindDirection,WindDirectionDegrees,WindSpeedMPH,WindSpeedGustMPH,Humidity,HourlyPrecipIn,Conditions,Clouds,dailyrainin,SoftwareType,DateUTC
2013-01-19 00:00:00,39.7,32.8,29.86,SSE,149,4.0,4.0,76,0.00,,,0.04,Wunderground v.1.15,2013-01-19 06:00:00,
2013-01-19 00:05:00,39.7,32.8,29.86,South,184,3.0,11.0,76,0.00,,,0.00,Wunderground v.1.15,2013-01-19 06:05:00,
2013-01-19 00:11:00,39.8,32.8,29.86,South,182,3.0,3.0,76,0.00,,,0.00,Wunderground v.1.15,2013-01-19 06:11:00,
2013-01-19 00:17:00,39.8,32.8,29.86,SSW,213,3.0,4.0,76,0.00,,,0.00,Wunderground v.1.15,2013-01-19 06:17:00,
2013-01-19 00:23:00,39.7,32.8,29.86,SSE,162,2.0,3.0,76,0.00,,,0.00,Wunderground v.1.15,2013-01-19 06:23:00,
2013-01-19 00:29:00,39.7,32.8,29.87,SSW,199,3.0,4.0,76,0.00,,,0.00,Wunderground v.1.15,2013-01-19 06:29:00,
2013-01-19 00:34:00,39.6,32.7,29.87,SSE,165,3.0,5.0,76,0.00,,,0.00,Wunderground v.1.15,2013-01-19 06:34:00,
2013-01-19 00:40:00,39.6,33.0,29.87,SSE,158,3.0,3.0,77,0.00,,,0.00,Wunderground v.1.15,2013-01-19 06:40:00,
2013-01-19 00:46:00,39.7,33.1,29.87,South,180,3.0,5.0,77,0.00,,,0.00,Wunderground v.1.15,2013-01-19 06:46:00,
2013-01-19 00:52:00,39.8,32.8,29.87,SW,217,3.0,5.0,76,0.00,,,0.00,Wunderground v.1.15,2013-01-19 06:52:00,
2013-01-19 00:58:00,39.8,32.8,29.87,South,191,3.0,5.0,76,0.00,,,0.00,Wunderground v.1.15,2013-01-19 06:58:00,
2013-01-19 01:04:00,39.8,32.8,29.87,South,180,3.0,9.0,76,0.00,,,0.00,Wunderground v.1.15,2013-01-19 07:04:00,
2013-01-19 01:10:00,39.7,33.1,29.87,SSW,203,3.0,3.0,77,0.00,,,0.00,Wunderground v.1.15,2013-01-19 07:10:00,
2013-01-19 01:15:00,39.8,33.2,29.86,SSW,208,4.0,4.0,77,0.00,,,0.00,Wunderground v.1.15,2013-01-19 07:15:00,
2013-01-19 01:20:00,39.9,33.3,29.87,SSW,203,4.0,4.0,77,0.00,,,0.00,Wunderground v.1.15,2013-01-19 07:20:00,
2013-01-19 01:25:00,40.0,33.4,29.87,South,178,4.0,8.0,77,0.00,,,0.00,Wunderground v.1.15,2013-01-19 07:25:00,
2013-01-19 01:30:00,40.1,33.5,29.87,SSW,199,4.0,5.0,77,0.00,,,0.00,Wunderground v.1.15,2013-01-19 07:30:00,
2013-01-19 01:35:00,40.3,33.3,29.87,SSW,194,4.0,5.0,76,0.00,,,0.00,Wunderground v.1.15,2013-01-19 07:35:00,
2013-01-19 01:40:00,40.4,33.4,29.88,South,170,4.0,4.0,76,0.00,,,0.00,Wunderground v.1.15,2013-01-19 07:40:00,
2013-01-19 01:47:00,40.6,33.6,29.87,South,181,4.0,7.0,76,0.00,,,0.00,Wunderground v.1.15,2013-01-19 07:47:00,
2013-01-19 01:52:00,40.6,33.6,29.87,SSW,213,4.0,4.0,76,0.00,,,0.00,Wunderground v.1.15,2013-01-19 07:52:00,
2013-01-19 01:57:00,40.6,33.6,29.88,SSE,148,4.0,5.0,76,0.00,,,0.00,Wunderground v.1.15,2013-01-19 07:57:00,
2013-01-19 02:02:00,40.6,33.6,29.88,South,188,4.0,7.0,76,0.00,,,0.00,Wunderground v.1.15,2013-01-19 08:02:00,
2013-01-19 02:08:00,40.8,33.8,29.88,SW,223,4.0,7.0,76,0.00,,,0.00,Wunderground v.1.15,2013-01-19 08:08:00,
2013-01-19 02:14:00,40.8,33.5,29.88,SW,214,4.0,5.0,75,0.00,,,0.00,Wunderground v.1.15,2013-01-19 08:14:00,
2013-01-19 02:19:00,40.8,33.5,29.88,SSE,147,4.0,5.0,75,0.00,,,0.00,Wunderground v.1.15,2013-01-19 08:19:00,
2013-01-19 02:24:00,40.7,33.7,29.88,South,169,4.0,7.0,76,0.00,,,0.00,Wunderground v.1.15,2013-01-19 08:24:00,
2013-01-19 02:29:00,40.7,33.7,29.88,SSW,207,4.0,7.0,76,0.00,,,0.00,Wunderground v.1.15,2013-01-19 08:29:00,
2013-01-19 02:35:00,40.7,33.7,29.88,South,189,4.0,4.0,76,0.00,,,0.00,Wunderground v.1.15,2013-01-19 08:35:00,
2013-01-19 02:41:00,40.6,33.6,29.88,SW,221,3.0,3.0,76,0.00,,,0.00,Wunderground v.1.15,2013-01-19 08:41:00,
2013-01-19 02:47:00,40.6,33.6,29.88,SW,215,3.0,4.0,76,0.00,,,0.00,Wunderground v.1.15,2013-01-19 08:47:00,
2013-01-19 02:52:00,40.5,33.5,29.88,SSW,203,3.0,5.0,76,0.00,,,0.00,Wunderground v.1.15,2013-01-19 08:52:00,
2013-01-19 02:58:00,40.5,33.9,29.87,SSE,164,3.0,5.0,77,0.00,,,0.00,Wunderground v.1.15,2013-01-19 08:58:00,
2013-01-19 03:04:00,40.5,33.9,29.87,SSW,196,3.0,9.0,77,0.00,,,0.00,Wunderground v.1.15,2013-01-19 09:04:00,
2013-01-19 03:09:00,40.5,33.9,29.87,South,175,3.0,9.0,77,0.00,,,0.00,Wunderground v.1.15,2013-01-19 09:09:00,
2013-01-19 03:15:00,40.5,33.9,29.87,SSE,147,3.0,5.0,77,0.00,,,0.00,Wunderground v.1.15,2013-01-19 09:15:00,
2013-01-19 03:20:00,40.4,33.8,29.86,South,184,2.0,2.0,77,0.00,,,0.00,Wunderground v.1.15,2013-01-19 09:20:00,
2013-01-19 03:27:00,40.3,33.7,29.87,South,170,2.0,4.0,77,0.00,,,0.00,Wunderground v.1.15,2013-01-19 09:27:00,
2013-01-19 03:32:00,40.2,33.9,29.87,South,180,2.0,3.0,78,0.00,,,0.00,Wunderground v.1.15,2013-01-19 09:32:00,
2013-01-19 03:37:00,40.0,33.7,29.86,South,184,2.0,3.0,78,0.00,,,0.00,Wunderground v.1.15,2013-01-19 09:37:00,
2013-01-19 03:42:00,39.9,33.6,29.86,South,177,2.0,3.0,78,0.00,,,0.00,Wunderground v.1.15,2013-01-19 09:42:00,
2013-01-19 03:48:00,39.6,33.6,29.86,South,185,2.0,3.0,79,0.00,,,0.00,Wunderground v.1.15,2013-01-19 09:48:00,
2013-01-19 03:53:00,39.5,33.5,29.86,South,180,2.0,2.0,79,0.00,,,0.00,Wunderground v.1.15,2013-01-19 09:53:00,
2013-01-19 03:59:00,39.4,33.7,29.86,SSE,160,2.0,3.0,80,0.00,,,0.00,Wunderground v.1.15,2013-01-19 09:59:00,
2013-01-19 04:04:00,39.3,33.6,29.85,SSE,161,2.0,3.0,80,0.00,,,0.00,Wunderground v.1.15,2013-01-19 10:04:00,
2013-01-19 04:10:00,39.2,33.5,29.85,South,170,2.0,2.0,80,0.00,,,0.00,Wunderground v.1.15,2013-01-19 10:10:00,
2013-01-19 04:16:00,39.2,33.5,29.85,SSE,157,2.0,3.0,80,0.00,,,0.00,Wunderground v.1.15,2013-01-19 10:16:00,
2013-01-19 04:22:00,39.1,33.5,29.85,SSE,168,2.0,2.0,80,0.00,,,0.00,Wunderground v.1.15,2013-01-19 10:22:00,
2013-01-19 04:27:00,39.1,33.5,29.85,South,177,2.0,2.0,80,0.00,,,0.00,Wunderground v.1.15,2013-01-19 10:27:00,
2013-01-19 04:32:00,39.1,33.5,29.85,South,177,2.0,3.0,80,0.00,,,0.00,Wunderground v.1.15,2013-01-19 10:32:00,
2013-01-19 04:38:00,39.1,33.8,29.85,SSE,153,2.0,7.0,81,0.00,,,0.00,Wunderground v.1.15,2013-01-19 10:38:00,
2013-01-19 04:44:00,39.1,33.8,29.85,SE,142,2.0,4.0,81,0.00,,,0.00,Wunderground v.1.15,2013-01-19 10:44:00,
2013-01-19 04:49:00,39.1,33.8,29.85,South,171,2.0,4.0,81,0.00,,,0.00,Wunderground v.1.15,2013-01-19 10:49:00,
2013-01-19 04:55:00,39.0,33.4,29.84,South,185,1.0,3.0,80,0.00,,,0.00,Wunderground v.1.15,2013-01-19 10:55:00,
2013-01-19 05:00:00,38.9,33.6,29.84,SSE,167,1.0,2.0,81,0.00,,,0.00,Wunderground v.1.15,2013-01-19 11:00:00,
2013-01-19 05:05:00,38.8,33.5,29.84,South,173,1.0,5.0,81,0.00,,,0.00,Wunderground v.1.15,2013-01-19 11:05:00,
2013-01-19 05:11:00,38.7,33.4,29.84,South,182,1.0,2.0,81,0.00,,,0.00,Wunderground v.1.15,2013-01-19 11:11:00,
2013-01-19 06:47:00,39.0,33.4,29.83,SSE,156,3.0,5.0,80,0.00,,,0.00,Wunderground v.1.15,2013-01-19 12:47:00,
2013-01-19 06:48:00,38.9,33.3,29.83,South,185,3.0,5.0,80,0.00,,,0.00,Wunderground v.1.15,2013-01-19 12:48:00,
2013-01-19 06:52:00,39.0,33.4,29.82,SSW,205,3.0,3.0,80,0.00,,,0.00,Wunderground v.1.15,2013-01-19 12:52:00,
2013-01-19 06:53:00,39.0,33.4,29.82,SSE,159,3.0,3.0,80,0.00,,,0.00,Wunderground v.1.15,2013-01-19 12:53:00,
2013-01-19 06:54:00,38.9,33.3,29.82,SSW,196,3.0,3.0,80,0.00,,,0.00,Wunderground v.1.15,2013-01-19 12:54:00,
2013-01-19 07:00:00,39.0,33.4,29.82,South,172,3.0,3.0,80,0.00,,,0.00,Wunderground v.1.15,2013-01-19 13:00:00,
2013-01-19 07:06:00,39.0,33.4,29.82,South,175,3.0,7.0,80,0.00,,,0.00,Wunderground v.1.15,2013-01-19 13:06:00,
2013-01-19 07:11:00,39.0,33.4,29.83,West,265,3.0,3.0,80,0.00,,,0.00,Wunderground v.1.15,2013-01-19 13:11:00,
2013-01-19 07:16:00,39.0,33.4,29.83,SSE,166,3.0,9.0,80,0.00,,,0.00,Wunderground v.1.15,2013-01-19 13:16:00,
2013-01-19 07:21:00,39.0,33.4,29.82,SSE,165,3.0,5.0,80,0.00,,,0.00,Wunderground v.1.15,2013-01-19 13:21:00,
2013-01-19 07:26:00,39.1,33.5,29.82,South,185,4.0,5.0,80,0.00,,,0.00,Wunderground v.1.15,2013-01-19 13:26:00,
2013-01-19 07:32:00,39.1,33.5,29.82,SSE,161,3.0,5.0,80,0.00,,,0.00,Wunderground v.1.15,2013-01-19 13:32:00,
2013-01-19 07:37:00,39.1,33.5,29.82,SSE,159,3.0,5.0,80,0.00,,,0.00,Wunderground v.1.15,2013-01-19 13:37:00,
2013-01-19 07:43:00,39.1,33.5,29.82,SSE,162,3.0,5.0,80,0.00,,,0.00,Wunderground v.1.15,2013-01-19 13:43:00,
2013-01-19 07:48:00,39.1,33.5,29.82,SSW,208,3.0,6.0,80,0.00,,,0.00,Wunderground v.1.15,2013-01-19 13:48:00,
2013-01-19 07:53:00,39.2,33.2,29.82,South,175,3.0,5.0,79,0.00,,,0.00,Wunderground v.1.15,2013-01-19 13:53:00,
2013-01-19 07:58:00,39.2,33.5,29.82,SSE,159,3.0,5.0,80,0.00,,,0.00,Wunderground v.1.15,2013-01-19 13:58:00,
2013-01-19 08:04:00,39.2,33.2,29.82,South,173,3.0,8.0,79,0.00,,,0.00,Wunderground v.1.15,2013-01-19 14:04:00,
2013-01-19 08:09:00,39.2,33.2,29.82,South,171,3.0,8.0,79,0.00,,,0.00,Wunderground v.1.15,2013-01-19 14:09:00,
2013-01-19 08:14:00,39.2,33.2,29.82,South,186,3.0,6.0,79,0.00,,,0.00,Wunderground v.1.15,2013-01-19 14:14:00,
2013-01-19 08:19:00,39.2,33.5,29.82,SW,215,3.0,6.0,80,0.00,,,0.00,Wunderground v.1.15,2013-01-19 14:19:00,
2013-01-19 08:24:00,39.3,33.6,29.82,South,180,3.0,5.0,80,0.00,,,0.00,Wunderground v.1.15,2013-01-19 14:24:00,
2013-01-19 08:29:00,39.3,33.6,29.82,SSE,157,3.0,6.0,80,0.00,,,0.00,Wunderground v.1.15,2013-01-19 14:29:00,
2013-01-19 08:34:00,39.4,33.4,29.82,South,178,3.0,5.0,79,0.00,,,0.00,Wunderground v.1.15,2013-01-19 14:34:00,
2013-01-19 08:40:00,39.5,33.5,29.81,South,183,4.0,4.0,79,0.00,,,0.00,Wunderground v.1.15,2013-01-19 14:40:00,
2013-01-19 08:45:00,39.6,33.6,29.81,South,178,3.0,4.0,79,0.00,,,0.00,Wunderground v.1.15,2013-01-19 14:45:00,
2013-01-19 08:50:00,39.6,33.6,29.82,SSE,166,3.0,3.0,79,0.00,,,0.00,Wunderground v.1.15,2013-01-19 14:50:00,
2013-01-19 08:55:00,39.7,33.7,29.82,SSE,162,3.0,4.0,79,0.00,,,0.00,Wunderground v.1.15,2013-01-19 14:55:00,
2013-01-19 09:01:00,39.8,33.8,29.81,SSW,208,4.0,9.0,79,0.00,,,0.00,Wunderground v.1.15,2013-01-19 15:01:00,
2013-01-19 09:06:00,39.9,33.9,29.82,South,171,4.0,9.0,79,0.00,,,0.00,Wunderground v.1.15,2013-01-19 15:06:00,
2013-01-19 09:12:00,40.0,34.0,29.82,SW,219,3.0,4.0,79,0.00,,,0.00,Wunderground v.1.15,2013-01-19 15:12:00,
2013-01-19 09:17:00,40.0,34.0,29.81,South,178,3.0,5.0,79,0.00,,,0.00,Wunderground v.1.15,2013-01-19 15:17:00,
2013-01-19 09:22:00,40.0,34.0,29.81,South,190,3.0,3.0,79,0.00,,,0.00,Wunderground v.1.15,2013-01-19 15:22:00,
2013-01-19 09:28:00,40.1,34.1,29.81,SSE,161,3.0,5.0,79,0.00,,,0.00,Wunderground v.1.15,2013-01-19 15:28:00,
2013-01-19 09:33:00,40.1,34.1,29.81,SSE,153,3.0,4.0,79,0.00,,,0.00,Wunderground v.1.15,2013-01-19 15:33:00,
2013-01-19 09:39:00,40.3,34.3,29.81,SSW,205,2.0,4.0,79,0.00,,,0.00,Wunderground v.1.15,2013-01-19 15:39:00,
2013-01-19 09:44:00,40.5,34.5,29.80,WSW,241,2.0,3.0,79,0.00,,,0.00,Wunderground v.1.15,2013-01-19 15:44:00,
2013-01-19 09:50:00,40.7,34.4,29.80,SSE,167,2.0,6.0,78,0.00,,,0.00,Wunderground v.1.15,2013-01-19 15:50:00,
2013-01-19 09:55:00,40.8,34.5,29.80,South,172,3.0,6.0,78,0.00,,,0.00,Wunderground v.1.15,2013-01-19 15:55:00,
2013-01-19 10:01:00,41.0,34.7,29.81,South,177,3.0,10.0,78,0.00,,,0.00,Wunderground v.1.15,2013-01-19 16:01:00,
2013-01-19 10:08:00,41.2,34.9,29.81,SSE,163,3.0,10.0,78,0.00,,,0.00,Wunderground v.1.15,2013-01-19 16:08:00,
2013-01-19 10:13:00,41.4,35.1,29.80,SSE,161,4.0,6.0,78,0.00,,,0.00,Wunderground v.1.15,2013-01-19 16:13:00,
2013-01-19 10:18:00,41.5,34.8,29.80,South,185,4.0,6.0,77,0.00,,,0.00,Wunderground v.1.15,2013-01-19 16:18:00,
2013-01-19 10:23:00,41.6,34.9,29.79,South,169,3.0,4.0,77,0.00,,,0.00,Wunderground v.1.15,2013-01-19 16:23:00,
2013-01-19 10:28:00,41.6,34.9,29.78,SW,215,3.0,4.0,77,0.00,,,0.00,Wunderground v.1.15,2013-01-19 16:28:00,
2013-01-19 10:34:00,41.7,35.0,29.77,SSW,211,3.0,6.0,77,0.00,,,0.00,Wunderground v.1.15,2013-01-19 16:34:00,
2013-01-19 10:39:00,41.7,35.0,29.78,South,186,3.0,6.0,77,0.00,,,0.00,Wunderground v.1.15,2013-01-19 16:39:00,
2013-01-19 10:44:00,41.7,35.0,29.78,South,180,3.0,5.0,77,0.00,,,0.00,Wunderground v.1.15,2013-01-19 16:44:00,
2013-01-19 10:49:00,41.8,35.1,29.77,South,179,3.0,5.0,77,0.00,,,0.00,Wunderground v.1.15,2013-01-19 16:49:00,
2013-01-19 10:54:00,41.8,35.1,29.77,South,175,2.0,5.0,77,0.00,,,0.00,Wunderground v.1.15,2013-01-19 16:54:00,
2013-01-19 10:59:00,41.9,35.2,29.76,South,190,2.0,5.0,77,0.00,,,0.00,Wunderground v.1.15,2013-01-19 16:59:00,
2013-01-19 11:05:00,42.0,35.3,29.77,SSE,167,2.0,8.0,77,0.00,,,0.00,Wunderground v.1.15,2013-01-19 17:05:00,
2013-01-19 11:13:00,42.1,35.4,29.79,SSW,206,3.0,4.0,77,0.00,,,0.00,Wunderground v.1.15,2013-01-19 17:13:00,
2013-01-19 11:20:00,42.2,35.2,29.77,SW,225,4.0,6.0,76,0.00,,,0.00,Wunderground v.1.15,2013-01-19 17:20:00,
2013-01-19 11:25:00,42.3,35.6,29.76,NNW,331,4.0,6.0,77,0.00,,,0.00,Wunderground v.1.15,2013-01-19 17:25:00,
2013-01-19 11:30:00,42.3,35.6,29.75,SSE,157,4.0,4.0,77,0.00,,,0.00,Wunderground v.1.15,2013-01-19 17:30:00,
2013-01-19 11:35:00,42.3,35.6,29.75,SSE,149,3.0,7.0,77,0.00,,,0.00,Wunderground v.1.15,2013-01-19 17:35:00,
2013-01-19 11:40:00,42.3,35.3,29.75,SSE,163,4.0,4.0,76,0.00,,,0.00,Wunderground v.1.15,2013-01-19 17:40:00,
2013-01-19 11:47:00,42.2,35.5,29.74,SSE,161,4.0,6.0,77,0.00,,,0.00,Wunderground v.1.15,2013-01-19 17:47:00,
2013-01-19 11:55:00,42.2,35.5,29.74,WSW,242,3.0,5.0,77,0.00,,,0.00,Wunderground v.1.15,2013-01-19 17:55:00,
2013-01-19 12:00:00,42.2,35.5,29.72,SSE,153,4.0,6.0,77,0.00,,,0.00,Wunderground v.1.15,2013-01-19 18:00:00,
2013-01-19 12:07:00,42.2,35.2,29.71,South,179,4.0,7.0,76,0.00,,,0.00,Wunderground v.1.15,2013-01-19 18:07:00,
2013-01-19 12:12:00,42.2,35.5,29.72,WNW,294,4.0,4.0,77,0.00,,,0.00,Wunderground v.1.15,2013-01-19 18:12:00,
2013-01-19 12:18:00,42.4,35.7,29.71,South,173,4.0,6.0,77,0.00,,,0.00,Wunderground v.1.15,2013-01-19 18:18:00,
2013-01-19 12:23:00,42.5,35.8,29.72,SW,224,3.0,6.0,77,0.00,,,0.00,Wunderground v.1.15,2013-01-19 18:23:00,
2013-01-19 12:30:00,42.8,35.8,29.71,SSE,167,3.0,3.0,76,0.00,,,0.00,Wunderground v.1.15,2013-01-19 18:30:00,
2013-01-19 12:37:00,43.1,36.0,29.71,SSE,159,3.0,5.0,76,0.00,,,0.00,Wunderground v.1.15,2013-01-19 18:37:00,
2013-01-19 12:43:00,43.2,35.8,29.70,ESE,115,4.0,8.0,75,0.00,,,0.00,Wunderground v.1.15,2013-01-19 18:43:00,
2013-01-19 12:48:00,43.4,36.0,29.70,SE,127,4.0,8.0,75,0.00,,,0.00,Wunderground v.1.15,2013-01-19 18:48:00,
2013-01-19 12:53:00,43.5,36.1,29.70,SSE,158,5.0,6.0,75,0.00,,,0.00,Wunderground v.1.15,2013-01-19 18:53:00,
2013-01-19 12:59:00,43.7,36.0,29.69,SSW,195,4.0,7.0,74,0.00,,,0.00,Wunderground v.1.15,2013-01-19 18:59:00,
2013-01-19 13:05:00,43.9,36.1,29.69,WSW,246,5.0,12.0,74,0.00,,,0.00,Wunderground v.1.15,2013-01-19 19:05:00,
2013-01-19 13:10:00,44.1,36.3,29.69,SSW,196,5.0,6.0,74,0.00,,,0.00,Wunderground v.1.15,2013-01-19 19:10:00,
2013-01-19 13:17:00,44.3,36.2,29.69,South,189,4.0,11.0,73,0.00,,,0.00,Wunderground v.1.15,2013-01-19 19:17:00,
2013-01-19 13:23:00,44.5,36.4,29.69,SW,216,4.0,4.0,73,0.00,,,0.00,Wunderground v.1.15,2013-01-19 19:23:00,
2013-01-19 13:28:00,44.6,36.5,29.69,SW,215,4.0,4.0,73,0.00,,,0.00,Wunderground v.1.15,2013-01-19 19:28:00,
2013-01-19 13:34:00,44.7,36.6,29.68,SSW,204,3.0,5.0,73,0.00,,,0.00,Wunderground v.1.15,2013-01-19 19:34:00,
2013-01-19 13:39:00,44.8,36.3,29.68,South,173,3.0,5.0,72,0.00,,,0.00,Wunderground v.1.15,2013-01-19 19:39:00,
2013-01-19 13:44:00,44.9,36.4,29.68,SSW,210,4.0,7.0,72,0.00,,,0.00,Wunderground v.1.15,2013-01-19 19:44:00,
2013-01-19 13:50:00,45.0,36.5,29.69,NNE,19,3.0,3.0,72,0.00,,,0.00,Wunderground v.1.15,2013-01-19 19:50:00,
2013-01-19 13:58:00,45.1,36.6,29.68,South,180,3.0,8.0,72,0.00,,,0.00,Wunderground v.1.15,2013-01-19 19:58:00,
2013-01-19 14:04:00,45.2,36.7,29.68,SW,221,4.0,6.0,72,0.00,,,0.00,Wunderground v.1.15,2013-01-19 20:04:00,
2013-01-19 14:10:00,45.4,36.9,29.70,South,188,4.0,5.0,72,0.00,,,0.00,Wunderground v.1.15,2013-01-19 20:10:00,
2013-01-19 14:15:00,45.4,36.9,29.69,South,190,4.0,6.0,72,0.00,,,0.00,Wunderground v.1.15,2013-01-19 20:15:00,
2013-01-19 14:20:00,45.5,37.0,29.69,South,181,4.0,4.0,72,0.00,,,0.00,Wunderground v.1.15,2013-01-19 20:20:00,
2013-01-19 14:25:00,46.0,37.1,29.69,South,174,4.0,8.0,71,0.00,,,0.00,Wunderground v.1.15,2013-01-19 20:25:00,
2013-01-19 14:30:00,46.7,37.1,29.68,SE,142,5.0,5.0,69,0.00,,,0.00,Wunderground v.1.15,2013-01-19 20:30:00,
2013-01-19 14:37:00,46.9,37.3,29.68,SSW,209,6.0,7.0,69,0.00,,,0.00,Wunderground v.1.15,2013-01-19 20:37:00,
2013-01-19 14:43:00,47.3,37.3,29.68,SSE,168,5.0,10.0,68,0.00,,,0.00,Wunderground v.1.15,2013-01-19 20:43:00,
2013-01-19 14:48:00,47.6,37.2,29.67,SW,234,5.0,10.0,67,0.00,,,0.00,Wunderground v.1.15,2013-01-19 20:48:00,
2013-01-19 14:54:00,47.8,37.4,29.67,South,191,4.0,6.0,67,0.00,,,0.00,Wunderground v.1.15,2013-01-19 20:54:00,
2013-01-19 15:01:00,47.8,37.4,29.67,SSW,205,5.0,7.0,67,0.00,,,0.00,Wunderground v.1.15,2013-01-19 21:01:00,
2013-01-19 15:07:00,47.9,37.1,29.68,SSW,196,5.0,10.0,66,0.00,,,0.00,Wunderground v.1.15,2013-01-19 21:07:00,
2013-01-19 15:14:00,48.2,37.4,29.68,SSW,212,5.0,5.0,66,0.00,,,0.00,Wunderground v.1.15,2013-01-19 21:14:00,
2013-01-19 15:19:00,48.1,37.7,29.68,South,179,5.0,6.0,67,0.00,,,0.00,Wunderground v.1.15,2013-01-19 21:19:00,
2013-01-19 15:24:00,48.0,37.6,29.68,South,190,4.0,7.0,67,0.00,,,0.00,Wunderground v.1.15,2013-01-19 21:24:00,
2013-01-19 15:29:00,48.1,37.7,29.68,South,183,4.0,7.0,67,0.00,,,0.00,Wunderground v.1.15,2013-01-19 21:29:00,
2013-01-19 15:35:00,47.9,37.1,29.68,SSE,151,5.0,7.0,66,0.00,,,0.00,Wunderground v.1.15,2013-01-19 21:35:00,
2013-01-19 15:40:00,47.8,37.4,29.69,SW,229,5.0,7.0,67,0.00,,,0.00,Wunderground v.1.15,2013-01-19 21:40:00,
2013-01-19 15:46:00,47.6,37.2,29.70,SSW,209,5.0,9.0,67,0.00,,,0.00,Wunderground v.1.15,2013-01-19 21:46:00,
2013-01-19 15:52:00,46.9,36.9,29.70,NW,310,5.0,5.0,68,0.00,,,0.00,Wunderground v.1.15,2013-01-19 21:52:00,
2013-01-19 15:57:00,46.5,36.9,29.70,South,182,5.0,7.0,69,0.00,,,0.00,Wunderground v.1.15,2013-01-19 21:57:00,
2013-01-19 16:02:00,46.2,37.0,29.70,South,175,5.0,11.0,70,0.00,,,0.00,Wunderground v.1.15,2013-01-19 22:02:00,
2013-01-19 16:08:00,46.1,37.2,29.70,West,263,4.0,11.0,71,0.00,,,0.00,Wunderground v.1.15,2013-01-19 22:08:00,
2013-01-19 16:14:00,45.9,37.0,29.70,South,177,3.0,5.0,71,0.00,,,0.00,Wunderground v.1.15,2013-01-19 22:14:00,
2013-01-19 16:20:00,45.7,37.2,29.70,South,179,3.0,4.0,72,0.00,,,0.00,Wunderground v.1.15,2013-01-19 22:20:00,
2013-01-19 16:25:00,45.5,37.0,29.70,West,273,4.0,5.0,72,0.00,,,0.00,Wunderground v.1.15,2013-01-19 22:25:00,
2013-01-19 16:30:00,45.4,37.2,29.70,SSW,213,4.0,9.0,73,0.00,,,0.00,Wunderground v.1.15,2013-01-19 22:30:00,
2013-01-19 16:36:00,45.2,37.1,29.70,SSE,167,4.0,9.0,73,0.00,,,0.00,Wunderground v.1.15,2013-01-19 22:36:00,
2013-01-19 16:42:00,45.2,36.7,29.69,SSW,196,4.0,6.0,72,0.00,,,0.00,Wunderground v.1.15,2013-01-19 22:42:00,
2013-01-19 16:47:00,45.2,36.7,29.70,SW,217,4.0,8.0,72,0.00,,,0.00,Wunderground v.1.15,2013-01-19 22:47:00,
2013-01-19 16:54:00,45.0,36.5,29.71,SSW,209,4.0,5.0,72,0.00,,,0.00,Wunderground v.1.15,2013-01-19 22:54:00,
2013-01-19 16:59:00,44.7,36.6,29.71,South,178,4.0,5.0,73,0.00,,,0.00,Wunderground v.1.15,2013-01-19 22:59:00,
2013-01-19 17:05:00,44.5,36.4,29.71,WSW,254,4.0,5.0,73,0.00,,,0.00,Wunderground v.1.15,2013-01-19 23:05:00,
2013-01-19 17:10:00,44.3,36.2,29.71,SSW,193,4.0,4.0,73,0.00,,,0.00,Wunderground v.1.15,2013-01-19 23:10:00,
2013-01-19 17:17:00,44.1,36.0,29.71,SW,225,3.0,7.0,73,0.00,,,0.00,Wunderground v.1.15,2013-01-19 23:17:00,
2013-01-19 17:23:00,44.1,36.0,29.71,SSW,201,4.0,7.0,73,0.00,,,0.00,Wunderground v.1.15,2013-01-19 23:23:00,
2013-01-19 17:29:00,44.1,36.0,29.71,SSW,210,4.0,7.0,73,0.00,,,0.00,Wunderground v.1.15,2013-01-19 23:29:00,
2013-01-19 17:34:00,44.1,36.0,29.72,South,173,3.0,6.0,73,0.00,,,0.00,Wunderground v.1.15,2013-01-19 23:34:00,
2013-01-19 17:39:00,44.2,36.1,29.72,NNW,329,4.0,6.0,73,0.00,,,0.00,Wunderground v.1.15,2013-01-19 23:39:00,
2013-01-19 17:44:00,44.2,36.1,29.72,South,174,4.0,5.0,73,0.00,,,0.00,Wunderground v.1.15,2013-01-19 23:44:00,
2013-01-19 17:50:00,44.3,35.8,29.72,SSW,205,5.0,5.0,72,0.00,,,0.00,Wunderground v.1.15,2013-01-19 23:50:00,
2013-01-19 17:55:00,44.3,35.8,29.72,SE,125,5.0,6.0,72,0.00,,,0.00,Wunderground v.1.15,2013-01-19 23:55:00,
2013-01-19 18:00:00,44.2,35.7,29.71,SSW,202,4.0,7.0,72,0.00,,,0.00,Wunderground v.1.15,2013-01-20 00:00:00,
2013-01-19 18:06:00,44.0,35.6,29.71,South,174,4.0,8.0,72,0.00,,,0.00,Wunderground v.1.15,2013-01-20 00:06:00,
2013-01-19 18:12:00,43.8,35.4,29.72,South,184,4.0,5.0,72,0.00,,,0.00,Wunderground v.1.15,2013-01-20 00:12:00,
2013-01-19 18:18:00,43.6,35.2,29.71,East,86,4.0,6.0,72,0.00,,,0.00,Wunderground v.1.15,2013-01-20 00:18:00,
2013-01-19 18:23:00,43.4,35.3,29.71,SSW,194,5.0,8.0,73,0.00,,,0.00,Wunderground v.1.15,2013-01-20 00:23:00,
2013-01-19 18:28:00,43.3,35.2,29.72,WNW,300,5.0,8.0,73,0.00,,,0.00,Wunderground v.1.15,2013-01-20 00:28:00,
2013-01-19 18:34:00,43.3,35.2,29.72,South,184,5.0,8.0,73,0.00,,,0.00,Wunderground v.1.15,2013-01-20 00:34:00,
2013-01-19 18:39:00,43.1,35.0,29.72,South,184,4.0,8.0,73,0.00,,,0.00,Wunderground v.1.15,2013-01-20 00:39:00,
2013-01-19 18:45:00,43.0,34.9,29.73,SW,229,4.0,5.0,73,0.00,,,0.00,Wunderground v.1.15,2013-01-20 00:45:00,
2013-01-19 18:50:00,42.9,34.8,29.72,West,269,3.0,3.0,73,0.00,,,0.00,Wunderground v.1.15,2013-01-20 00:50:00,
2013-01-19 18:57:00,42.6,34.5,29.73,West,260,3.0,9.0,73,0.00,,,0.00,Wunderground v.1.15,2013-01-20 00:57:00,
2013-01-19 19:02:00,42.7,33.9,29.73,NNW,336,5.0,11.0,71,0.00,,,0.00,Wunderground v.1.15,2013-01-20 01:02:00,
2013-01-19 19:08:00,42.7,33.9,29.74,WNW,284,6.0,11.0,71,0.00,,,0.00,Wunderground v.1.15,2013-01-20 01:08:00,
2013-01-19 19:13:00,42.5,34.1,29.74,WNW,287,5.0,8.0,72,0.00,,,0.00,Wunderground v.1.15,2013-01-20 01:13:00,
2013-01-19 19:19:00,42.5,33.8,29.74,NW,311,5.0,8.0,71,0.00,,,0.00,Wunderground v.1.15,2013-01-20 01:19:00,
2013-01-19 19:25:00,42.4,33.3,29.74,WNW,284,6.0,8.0,70,0.00,,,0.00,Wunderground v.1.15,2013-01-20 01:25:00,
2013-01-19 19:31:00,42.2,33.5,29.74,NW,304,7.0,7.0,71,0.00,,,0.00,Wunderground v.1.15,2013-01-20 01:31:00,
2013-01-19 19:37:00,41.9,33.5,29.74,SSW,211,6.0,10.0,72,0.00,,,0.00,Wunderground v.1.15,2013-01-20 01:37:00,
2013-01-19 19:42:00,41.7,33.3,29.74,SW,227,7.0,10.0,72,0.00,,,0.00,Wunderground v.1.15,2013-01-20 01:42:00,
2013-01-19 19:47:00,41.7,33.7,29.74,SSW,213,6.0,10.0,73,0.00,,,0.00,Wunderground v.1.15,2013-01-20 01:47:00,
2013-01-19 19:52:00,41.6,33.6,29.74,NW,307,6.0,10.0,73,0.00,,,0.00,Wunderground v.1.15,2013-01-20 01:52:00,
2013-01-19 19:58:00,41.4,33.7,29.75,North,360,6.0,10.0,74,0.00,,,0.00,Wunderground v.1.15,2013-01-20 01:58:00,
2013-01-19 20:03:00,41.1,33.4,29.75,SW,235,6.0,10.0,74,0.00,,,0.00,Wunderground v.1.15,2013-01-20 02:03:00,
2013-01-19 20:08:00,41.2,32.2,29.74,North,355,7.0,13.0,70,0.00,,,0.00,Wunderground v.1.15,2013-01-20 02:08:00,
2013-01-19 20:15:00,41.2,29.9,29.75,West,259,9.0,14.0,64,0.00,,,0.00,Wunderground v.1.15,2013-01-20 02:15:00,
2013-01-19 20:22:00,40.8,29.2,29.74,West,281,8.0,8.0,63,0.00,,,0.00,Wunderground v.1.15,2013-01-20 02:22:00,
2013-01-19 20:29:00,40.5,26.9,29.74,NE,42,8.0,22.0,58,0.00,,,0.00,Wunderground v.1.15,2013-01-20 02:29:00,
2013-01-19 20:34:00,40.1,26.5,29.75,NE,56,10.0,16.0,58,0.00,,,0.00,Wunderground v.1.15,2013-01-20 02:34:00,
2013-01-19 20:39:00,39.5,26.8,29.75,SW,219,9.0,17.0,60,0.00,,,0.00,Wunderground v.1.15,2013-01-20 02:39:00,
2013-01-19 20:45:00,39.1,26.8,29.75,WSW,255,9.0,14.0,61,0.00,,,0.00,Wunderground v.1.15,2013-01-20 02:45:00,
2013-01-19 20:50:00,38.7,26.8,29.75,SSE,166,9.0,10.0,62,0.00,,,0.00,Wunderground v.1.15,2013-01-20 02:50:00,
2013-01-19 20:57:00,38.1,25.0,29.76,WNW,282,9.0,13.0,59,0.00,,,0.00,Wunderground v.1.15,2013-01-20 02:57:00,
2013-01-19 21:02:00,37.1,21.5,29.77,NW,306,10.0,15.0,53,0.00,,,0.00,Wunderground v.1.15,2013-01-20 03:02:00,
2013-01-19 21:08:00,36.3,21.2,29.77,West,264,10.0,17.0,54,0.00,,,0.00,Wunderground v.1.15,2013-01-20 03:08:00,
2013-01-19 21:14:00,35.3,21.2,29.78,WNW,298,10.0,19.0,56,0.00,,,0.00,Wunderground v.1.15,2013-01-20 03:14:00,
2013-01-19 21:20:00,34.3,20.2,29.79,WNW,286,9.0,9.0,56,0.00,,,0.00,Wunderground v.1.15,2013-01-20 03:20:00,
2013-01-19 21:25:00,33.4,18.9,29.79,WSW,252,9.0,14.0,55,0.00,,,0.00,Wunderground v.1.15,2013-01-20 03:25:00,
2013-01-19 21:30:00,32.6,17.8,29.80,NW,307,9.0,13.0,54,0.00,,,0.00,Wunderground v.1.15,2013-01-20 03:30:00,
2013-01-19 21:35:00,31.7,17.8,29.80,NW,319,9.0,16.0,56,0.00,,,0.00,Wunderground v.1.15,2013-01-20 03:35:00,
2013-01-19 21:40:00,30.7,16.8,29.81,WNW,289,9.0,9.0,56,0.00,,,0.00,Wunderground v.1.15,2013-01-20 03:40:00,
2013-01-19 21:48:00,29.6,15.0,29.82,WSW,255,10.0,12.0,54,0.00,,,0.00,Wunderground v.1.15,2013-01-20 03:48:00,
2013-01-19 21:54:00,28.9,14.3,29.82,West,266,9.0,12.0,54,0.00,,,0.00,Wunderground v.1.15,2013-01-20 03:54:00,
2013-01-19 21:59:00,28.4,13.9,29.83,WNW,287,9.0,13.0,54,0.00,,,0.00,Wunderground v.1.15,2013-01-20 03:59:00,
2013-01-19 22:04:00,27.9,13.0,29.83,NNW,331,10.0,15.0,53,0.00,,,0.00,Wunderground v.1.15,2013-01-20 04:04:00,
2013-01-19 22:10:00,27.6,13.9,29.84,NW,319,9.0,15.0,56,0.00,,,0.00,Wunderground v.1.15,2013-01-20 04:10:00,
2013-01-19 22:15:00,27.4,14.1,29.84,West,276,9.0,15.0,57,0.00,,,0.00,Wunderground v.1.15,2013-01-20 04:15:00,
2013-01-19 22:20:00,27.2,14.8,29.85,NE,35,8.0,11.0,59,0.00,,,0.00,Wunderground v.1.15,2013-01-20 04:20:00,
2013-01-19 22:26:00,27.0,14.9,29.85,WNW,288,7.0,17.0,60,0.00,,,0.00,Wunderground v.1.15,2013-01-20 04:26:00,
2013-01-19 22:32:00,26.6,14.6,29.86,NW,321,7.0,13.0,60,0.00,,,0.00,Wunderground v.1.15,2013-01-20 04:32:00,
2013-01-19 22:38:00,26.2,14.2,29.86,West,281,8.0,13.0,60,0.00,,,0.00,Wunderground v.1.15,2013-01-20 04:38:00,
2013-01-19 22:43:00,25.7,14.5,29.86,SW,236,8.0,10.0,62,0.00,,,0.00,Wunderground v.1.15,2013-01-20 04:43:00,
2013-01-19 22:48:00,25.3,13.7,29.87,WNW,296,8.0,10.0,61,0.00,,,0.00,Wunderground v.1.15,2013-01-20 04:48:00,
2013-01-19 22:54:00,25.0,14.2,29.88,WNW,284,9.0,11.0,63,0.00,,,0.00,Wunderground v.1.15,2013-01-20 04:54:00,
2013-01-19 22:59:00,24.8,14.3,29.88,West,271,8.0,11.0,64,0.00,,,0.00,Wunderground v.1.15,2013-01-20 04:59:00,
2013-01-19 23:03:00,24.6,13.8,29.88,WSW,255,7.0,21.0,63,0.00,,,0.00,Wunderground v.1.15,2013-01-20 05:03:00,
2013-01-19 23:05:00,24.5,13.7,29.88,NE,49,8.0,21.0,63,0.00,,,0.00,Wunderground v.1.15,2013-01-20 05:05:00,
2013-01-19 23:06:00,24.4,13.6,29.88,WSW,251,8.0,21.0,63,0.00,,,0.00,Wunderground v.1.15,2013-01-20 05:06:00,
2013-01-19 23:09:00,24.3,13.9,29.88,West,261,9.0,21.0,64,0.00,,,0.00,Wunderground v.1.15,2013-01-20 05:09:00,
2013-01-19 23:14:00,24.1,13.3,29.89,WNW,283,8.0,11.0,63,0.00,,,0.00,Wunderground v.1.15,2013-01-20 05:14:00,
2013-01-19 23:20:00,23.8,12.3,29.89,West,269,9.0,9.0,61,0.00,,,0.00,Wunderground v.1.15,2013-01-20 05:20:00,
2013-01-19 23:25:00,23.5,12.4,29.90,NW,311,8.0,9.0,62,0.00,,,0.00,Wunderground v.1.15,2013-01-20 05:25:00,
2013-01-19 23:30:00,23.1,11.3,29.91,NNW,332,8.0,15.0,60,0.00,,,0.00,Wunderground v.1.15,2013-01-20 05:30:00,
2013-01-19 23:35:00,22.9,12.2,29.91,West,269,7.0,15.0,63,0.00,,,0.00,Wunderground v.1.15,2013-01-20 05:35:00,
2013-01-19 23:40:00,22.8,12.4,29.92,WNW,284,5.0,5.0,64,0.00,,,0.00,Wunderground v.1.15,2013-01-20 05:40:00,
2013-01-19 23:45:00,22.5,11.4,29.92,West,277,5.0,7.0,62,0.00,,,0.00,Wunderground v.1.15,2013-01-20 05:45:00,
2013-01-19 23:50:00,22.3,10.5,29.92,WNW,295,6.0,6.0,60,0.00,,,0.00,Wunderground v.1.15,2013-01-20 05:50:00,
2013-01-19 23:56:00,21.9,10.1,29.93,WNW,295,7.0,13.0,60,0.00,,,0.00,Wunderground v.1.15,2013-01-20 05:56:00,